Weather History for KMTP - May, 2014

Change the Weather History Date:

Saturday, May 3, 2014

  Actual Average (KHTO) Record (KHTO)
Temperature  
Mean Temperature 52 °F -  
Max Temperature 63 °F 61 °F 77 °F (2001)
Min Temperature 43 °F 43 °F 35 °F (1945)
Degree Days  
Heating Degree Days 12    
Growing Degree Days 2 (Base 50)    
Moisture  
Dew Point 42 °F    
Average Humidity 62    
Maximum Humidity 89    
Minimum Humidity 44    
Precipitation  
Precipitation 0.00 in - - ()
Sea Level Pressure  
Sea Level Pressure 29.84 in    
Wind  
Wind Speed 4 mph (SSW)    
Max Wind Speed 10 mph    
Max Gust Speed 18 mph    
Averages and records for this station are not official NWS values.
T = Trace of Precipitation, MM = Missing Value Source: NWS Daily Summary

Daily Weather History Graph

Daily Weather History Graph

Search for Another Location

Airport or City:

Trip Planner

Search our weather history database for the weather conditions in past years. The results will help you decide how hot, cold, wet, or windy it might be!

Date:

Astronomy

May. 03, 2014 Rise Set
Actual Time 5:43 AM EDT 7:46 PM EDT
Civil Twilight 5:13 AM EDT 8:16 PM EDT
Nautical Twilight 4:36 AM EDT 8:53 PM EDT
Astronomical Twilight 3:56 AM EDT 9:34 PM EDT
Moon 9:09 AM EDT (5/3) 11:51 PM EDT (5/3)
Length of Visible Light 15h 03m
Length of Day
14h 03m
Waxing Crescent, 19% of the Moon is Illuminated
May 3
Waxing Crescent
May 6
First Quarter
May 14
Full
May 21
Last Quarter
May 28
New

Hourly Weather History & Observations

Time (EDT) Temp. Dew Point Humidity Pressure Visibility Wind Dir Wind Speed Gust Speed Precip Events Conditions
12:54 AM 55.0 °F 41.0 °F 59% 29.85 in - WSW 3.5 mph - N/A   Unknown
1:54 AM 51.1 °F 42.1 °F 71% 29.86 in - WSW 3.5 mph - N/A   Unknown
2:54 AM 50.0 °F 42.1 °F 74% 29.86 in - SSE 3.5 mph - N/A   Unknown
3:54 AM 46.9 °F 42.1 °F 83% 29.86 in - Calm Calm - N/A   Unknown
4:54 AM 43.0 °F 37.9 °F 82% 29.87 in - Calm Calm - N/A   Unknown
5:54 AM 44.1 °F 41.0 °F 89% 29.89 in - Calm Calm - N/A   Unknown
6:54 AM 48.9 °F 44.1 °F 83% 29.89 in - Calm Calm - N/A   Unknown
7:54 AM 57.0 °F 42.1 °F 57% 29.88 in - West 5.8 mph - N/A   Unknown
8:54 AM 55.9 °F 41.0 °F 57% 29.90 in - Variable 3.5 mph - N/A   Unknown
9:54 AM 57.9 °F 41.0 °F 53% 29.90 in - Variable 3.5 mph - N/A   Unknown
10:54 AM 61.0 °F 39.0 °F 44% 29.87 in - Variable 3.5 mph - N/A   Unknown
11:54 AM 60.1 °F 46.9 °F 62% 29.86 in - Variable 4.6 mph - N/A   Unknown
12:54 PM 62.1 °F 41.0 °F 46% 29.85 in - South 8.1 mph - N/A   Unknown
1:54 PM 61.0 °F 41.0 °F 48% 29.83 in - South 8.1 mph - N/A   Unknown
2:54 PM 60.1 °F 42.1 °F 51% 29.82 in - South 9.2 mph 17.3 mph N/A   Unknown
3:54 PM 61.0 °F 41.0 °F 48% 29.81 in - South 8.1 mph - N/A   Unknown
4:54 PM 61.0 °F 39.0 °F 44% 29.79 in - SSW 10.4 mph 18.4 mph N/A   Unknown
5:54 PM 57.9 °F 39.9 °F 51% 29.79 in - SSW 10.4 mph - N/A   Unknown
6:54 PM 55.9 °F 39.9 °F 55% 29.80 in - South 6.9 mph - N/A   Unknown
7:54 PM 53.1 °F 42.1 °F 66% 29.80 in - SSW 8.1 mph - N/A   Unknown
8:54 PM 54.0 °F 42.1 °F 64% 29.80 in - South 8.1 mph - N/A   Unknown
9:54 PM 54.0 °F 43.0 °F 66% 29.81 in - SSW 6.9 mph - N/A   Unknown
10:54 PM 54.0 °F 43.0 °F 66% 29.80 in - SW 5.8 mph - N/A   Unknown
11:54 PM 54.0 °F 45.0 °F 72% 29.78 in - SSW 5.8 mph - N/A   Unknown